Time,TemperatureF,DewpointF,PressureIn,WindDirection,WindDirectionDegrees,WindSpeedMPH,WindSpeedGustMPH,Humidity,HourlyPrecipIn,Conditions,Clouds,dailyrainin,SoftwareType,DateUTC
2013-03-12 00:00:00,52.3,30.5,30.12,North,355,0.0,0.0,43,0.00,,SKC,0.00,VWS V14.01,2013-03-12 05:00:00,
2013-03-12 00:05:00,52.2,31.0,30.12,North,355,0.0,0.0,44,0.00,,SKC,0.00,VWS V14.01,2013-03-12 05:05:00,
2013-03-12 00:10:00,52.1,30.9,30.12,North,355,0.0,0.0,44,0.00,,SKC,0.00,VWS V14.01,2013-03-12 05:10:00,
2013-03-12 00:15:00,52.0,30.2,30.12,North,355,0.0,0.0,43,0.00,,SKC,0.00,VWS V14.01,2013-03-12 05:15:00,
2013-03-12 00:20:00,51.9,30.1,30.12,North,355,0.0,0.0,43,0.00,,SKC,0.00,VWS V14.01,2013-03-12 05:20:00,
2013-03-12 00:25:00,51.8,30.6,30.12,North,355,0.0,0.0,44,0.00,,SKC,0.00,VWS V14.01,2013-03-12 05:25:00,
2013-03-12 00:30:00,51.7,30.5,30.12,North,355,0.0,0.0,44,0.00,,SKC,0.00,VWS V14.01,2013-03-12 05:30:00,
2013-03-12 00:35:00,51.6,29.9,30.12,North,355,0.0,0.0,43,0.00,,SKC,0.00,VWS V14.01,2013-03-12 05:35:00,
2013-03-12 00:40:00,51.7,31.1,30.12,North,355,0.0,1.0,45,0.00,,SKC,0.00,VWS V14.01,2013-03-12 05:40:00,
2013-03-12 00:45:00,51.7,31.1,30.12,North,355,0.0,1.0,45,0.00,,SKC,0.00,VWS V14.01,2013-03-12 05:45:00,
2013-03-12 00:50:00,51.7,31.6,30.12,North,355,0.0,1.0,46,0.00,,SKC,0.00,VWS V14.01,2013-03-12 05:50:00,
2013-03-12 00:55:00,51.6,32.0,30.12,North,355,0.0,1.0,47,0.00,,SKC,0.00,VWS V14.01,2013-03-12 05:55:00,
2013-03-12 01:00:00,51.5,30.9,30.12,North,355,0.0,1.0,45,0.00,,SKC,0.00,VWS V14.01,2013-03-12 06:00:00,
2013-03-12 01:05:00,51.4,30.2,30.12,North,355,0.0,0.0,44,0.00,,SKC,0.00,VWS V14.01,2013-03-12 06:05:00,
2013-03-12 01:10:00,51.3,31.2,30.12,North,355,0.0,1.0,46,0.00,,SKC,0.00,VWS V14.01,2013-03-12 06:10:00,
2013-03-12 01:15:00,51.2,30.0,30.12,North,355,0.0,1.0,44,0.00,,SKC,0.00,VWS V14.01,2013-03-12 06:15:00,
2013-03-12 01:20:00,51.1,30.0,30.12,North,355,0.0,1.0,44,0.00,,SKC,0.00,VWS V14.01,2013-03-12 06:20:00,
2013-03-12 01:25:00,51.0,29.3,30.12,North,355,0.0,2.0,43,0.00,,SKC,0.00,VWS V14.01,2013-03-12 06:25:00,
2013-03-12 01:30:00,50.9,29.2,30.12,North,355,0.0,2.0,43,0.00,,SKC,0.00,VWS V14.01,2013-03-12 06:30:00,
2013-03-12 01:35:00,50.8,29.1,30.13,North,355,0.0,0.0,43,0.00,,SKC,0.00,VWS V14.01,2013-03-12 06:35:00,
2013-03-12 01:40:00,50.7,28.5,30.13,North,355,0.0,0.0,42,0.00,,SKC,0.00,VWS V14.01,2013-03-12 06:40:00,
2013-03-12 01:45:00,50.6,28.4,30.12,North,355,0.0,0.0,42,0.00,,SKC,0.00,VWS V14.01,2013-03-12 06:45:00,
2013-03-12 01:50:00,50.5,28.9,30.12,North,355,0.0,0.0,43,0.00,,SKC,0.00,VWS V14.01,2013-03-12 06:50:00,
2013-03-12 01:55:00,50.3,28.1,30.12,North,355,0.0,0.0,42,0.00,,SKC,0.00,VWS V14.01,2013-03-12 06:55:00,
2013-03-12 02:00:00,50.1,28.5,30.12,North,355,0.0,0.0,43,0.00,,SKC,0.00,VWS V14.01,2013-03-12 07:00:00,
2013-03-12 02:05:00,50.0,29.0,30.13,North,355,0.0,0.0,44,0.00,,SKC,0.00,VWS V14.01,2013-03-12 07:05:00,
2013-03-12 02:10:00,49.8,28.8,30.13,North,355,0.0,0.0,44,0.00,,SKC,0.00,VWS V14.01,2013-03-12 07:10:00,
2013-03-12 02:15:00,49.6,29.1,30.13,North,355,0.0,0.0,45,0.00,,SKC,0.00,VWS V14.01,2013-03-12 07:15:00,
2013-03-12 02:20:00,49.3,28.9,30.13,North,355,0.0,0.0,45,0.00,,SKC,0.00,VWS V14.01,2013-03-12 07:20:00,
2013-03-12 02:25:00,49.0,29.1,30.13,North,355,0.0,0.0,46,0.00,,SKC,0.00,VWS V14.01,2013-03-12 07:25:00,
2013-03-12 02:30:00,48.7,28.9,30.13,North,355,0.0,0.0,46,0.00,,SKC,0.00,VWS V14.01,2013-03-12 07:30:00,
2013-03-12 02:35:00,48.4,28.6,30.13,North,355,0.0,0.0,46,0.00,,SKC,0.00,VWS V14.01,2013-03-12 07:35:00,
2013-03-12 02:40:00,48.1,28.8,30.13,North,355,0.0,0.0,47,0.00,,SKC,0.00,VWS V14.01,2013-03-12 07:40:00,
2013-03-12 02:45:00,47.9,29.2,30.13,North,355,0.0,0.0,48,0.00,,SKC,0.00,VWS V14.01,2013-03-12 07:45:00,
2013-03-12 02:50:00,47.8,30.1,30.12,North,355,0.0,0.0,50,0.00,,SKC,0.00,VWS V14.01,2013-03-12 07:50:00,
2013-03-12 02:55:00,47.7,31.0,30.13,North,355,0.0,0.0,52,0.00,,SKC,0.00,VWS V14.01,2013-03-12 07:55:00,
2013-03-12 03:00:00,47.5,31.7,30.13,North,355,0.0,0.0,54,0.00,,SKC,0.00,VWS V14.01,2013-03-12 08:00:00,
2013-03-12 03:05:00,47.2,30.0,30.13,North,355,0.0,0.0,51,0.00,,SKC,0.00,VWS V14.01,2013-03-12 08:05:00,
2013-03-12 03:10:00,47.0,29.8,30.13,North,355,0.0,0.0,51,0.00,,SKC,0.00,VWS V14.01,2013-03-12 08:10:00,
2013-03-12 03:14:00,46.8,29.6,30.12,North,355,0.0,0.0,51,0.00,,SKC,0.00,VWS V14.01,2013-03-12 08:14:00,
2013-03-12 03:19:00,46.6,29.5,30.12,North,355,0.0,0.0,51,0.00,,SKC,0.00,VWS V14.01,2013-03-12 08:19:00,
2013-03-12 03:24:00,46.3,30.1,30.12,North,355,0.0,0.0,53,0.00,,SKC,0.00,VWS V14.01,2013-03-12 08:24:00,
2013-03-12 03:29:00,46.0,30.3,30.12,North,355,0.0,0.0,54,0.00,,SKC,0.00,VWS V14.01,2013-03-12 08:29:00,
2013-03-12 03:34:00,45.8,30.1,30.12,North,355,0.0,0.0,54,0.00,,SKC,0.00,VWS V14.01,2013-03-12 08:34:00,
2013-03-12 03:39:00,45.5,30.7,30.12,North,355,0.0,0.0,56,0.00,,SKC,0.00,VWS V14.01,2013-03-12 08:39:00,
2013-03-12 03:44:00,45.3,30.1,30.12,North,355,0.0,0.0,55,0.00,,SKC,0.00,VWS V14.01,2013-03-12 08:44:00,
2013-03-12 03:49:00,45.1,29.9,30.12,North,355,0.0,0.0,55,0.00,,SKC,0.00,VWS V14.01,2013-03-12 08:49:00,
2013-03-12 03:54:00,45.0,30.3,30.12,North,355,0.0,0.0,56,0.00,,SKC,0.00,VWS V14.01,2013-03-12 08:54:00,
2013-03-12 03:59:00,44.8,30.1,30.11,North,355,0.0,0.0,56,0.00,,SKC,0.00,VWS V14.01,2013-03-12 08:59:00,
2013-03-12 04:04:00,44.6,29.9,30.12,North,355,0.0,0.0,56,0.00,,SKC,0.00,VWS V14.01,2013-03-12 09:04:00,
2013-03-12 04:09:00,44.5,29.8,30.11,North,355,0.0,0.0,56,0.00,,SKC,0.00,VWS V14.01,2013-03-12 09:09:00,
2013-03-12 04:14:00,44.3,29.2,30.12,North,355,0.0,0.0,55,0.00,,SKC,0.00,VWS V14.01,2013-03-12 09:14:00,
2013-03-12 04:19:00,44.3,29.2,30.12,North,355,0.0,0.0,55,0.00,,SKC,0.00,VWS V14.01,2013-03-12 09:19:00,
2013-03-12 04:24:00,44.2,29.5,30.12,North,355,0.0,0.0,56,0.00,,SKC,0.00,VWS V14.01,2013-03-12 09:24:00,
2013-03-12 04:29:00,44.2,29.5,30.12,North,355,0.0,0.0,56,0.00,,SKC,0.00,VWS V14.01,2013-03-12 09:29:00,
2013-03-12 04:34:00,44.1,29.9,30.11,North,355,0.0,0.0,57,0.00,,SKC,0.00,VWS V14.01,2013-03-12 09:34:00,
2013-03-12 04:39:00,44.0,30.2,30.12,North,355,0.0,0.0,58,0.00,,SKC,0.00,VWS V14.01,2013-03-12 09:39:00,
2013-03-12 04:44:00,43.8,30.4,30.12,North,355,0.0,0.0,59,0.00,,SKC,0.00,VWS V14.01,2013-03-12 09:44:00,
2013-03-12 04:49:00,43.7,30.7,30.12,North,355,0.0,0.0,60,0.00,,SKC,0.00,VWS V14.01,2013-03-12 09:49:00,
2013-03-12 04:54:00,43.4,30.9,30.12,North,355,0.0,1.0,61,0.00,,SKC,0.00,VWS V14.01,2013-03-12 09:54:00,
2013-03-12 04:59:00,43.2,31.1,30.12,North,355,0.0,1.0,62,0.00,,SKC,0.00,VWS V14.01,2013-03-12 09:59:00,
2013-03-12 05:04:00,43.1,31.0,30.12,North,355,0.0,0.0,62,0.00,,SKC,0.00,VWS V14.01,2013-03-12 10:04:00,
2013-03-12 05:09:00,42.9,31.2,30.13,North,355,0.0,0.0,63,0.00,,SKC,0.00,VWS V14.01,2013-03-12 10:09:00,
2013-03-12 05:14:00,42.7,31.4,30.12,North,355,0.0,0.0,64,0.00,,SKC,0.00,VWS V14.01,2013-03-12 10:14:00,
2013-03-12 05:19:00,42.4,31.5,30.13,North,355,0.0,0.0,65,0.00,,SKC,0.00,VWS V14.01,2013-03-12 10:19:00,
2013-03-12 05:24:00,42.0,31.5,30.13,North,355,0.0,0.0,66,0.00,,SKC,0.00,VWS V14.01,2013-03-12 10:24:00,
2013-03-12 05:29:00,41.7,31.2,30.13,North,355,0.0,0.0,66,0.00,,SKC,0.00,VWS V14.01,2013-03-12 10:29:00,
2013-03-12 05:34:00,41.5,31.4,30.13,North,355,0.0,0.0,67,0.00,,SKC,0.00,VWS V14.01,2013-03-12 10:34:00,
2013-03-12 05:39:00,41.4,31.3,30.13,North,355,0.0,0.0,67,0.00,,SKC,0.00,VWS V14.01,2013-03-12 10:39:00,
2013-03-12 05:44:00,41.2,31.5,30.14,North,355,0.0,0.0,68,0.00,,SKC,0.00,VWS V14.01,2013-03-12 10:44:00,
2013-03-12 05:49:00,41.1,31.4,30.14,North,355,0.0,0.0,68,0.00,,SKC,0.00,VWS V14.01,2013-03-12 10:49:00,
2013-03-12 05:54:00,40.9,31.2,30.14,North,355,0.0,0.0,68,0.00,,SKC,0.00,VWS V14.01,2013-03-12 10:54:00,
2013-03-12 05:59:00,40.8,31.4,30.14,North,355,0.0,0.0,69,0.00,,SKC,0.00,VWS V14.01,2013-03-12 10:59:00,
2013-03-12 06:04:00,40.7,31.3,30.14,North,355,0.0,0.0,69,0.00,,SKC,0.00,VWS V14.01,2013-03-12 11:04:00,
2013-03-12 06:09:00,40.6,31.2,30.14,North,355,0.0,0.0,69,0.00,,SKC,0.00,VWS V14.01,2013-03-12 11:09:00,
2013-03-12 06:14:00,40.5,31.1,30.14,North,355,0.0,0.0,69,0.00,,SKC,0.00,VWS V14.01,2013-03-12 11:14:00,
2013-03-12 06:19:00,40.4,31.0,30.14,North,355,0.0,0.0,69,0.00,,SKC,0.00,VWS V14.01,2013-03-12 11:19:00,
2013-03-12 06:24:00,40.3,31.3,30.14,North,355,0.0,0.0,70,0.00,,SKC,0.00,VWS V14.01,2013-03-12 11:24:00,
2013-03-12 06:29:00,40.3,31.3,30.14,North,355,0.0,0.0,70,0.00,,SKC,0.00,VWS V14.01,2013-03-12 11:29:00,
2013-03-12 06:34:00,40.2,31.2,30.14,North,355,0.0,0.0,70,0.00,,SKC,0.00,VWS V14.01,2013-03-12 11:34:00,
2013-03-12 06:39:00,40.2,31.2,30.15,North,355,0.0,0.0,70,0.00,,SKC,0.00,VWS V14.01,2013-03-12 11:39:00,
2013-03-12 06:44:00,40.1,31.1,30.15,North,355,0.0,0.0,70,0.00,,SKC,0.00,VWS V14.01,2013-03-12 11:44:00,
2013-03-12 06:49:00,40.1,31.1,30.15,North,355,0.0,0.0,70,0.00,,SKC,0.00,VWS V14.01,2013-03-12 11:49:00,
2013-03-12 06:54:00,40.1,31.1,30.15,North,355,0.0,0.0,70,0.00,,SKC,0.00,VWS V14.01,2013-03-12 11:54:00,
2013-03-12 06:59:00,40.1,30.8,30.15,North,355,0.0,0.0,69,0.00,,SKC,0.00,VWS V14.01,2013-03-12 11:59:00,
2013-03-12 07:04:00,40.1,30.8,30.15,North,355,0.0,0.0,69,0.00,,SKC,0.00,VWS V14.01,2013-03-12 12:04:00,
2013-03-12 07:09:00,40.0,30.3,30.15,North,355,0.0,0.0,68,0.00,,SKC,0.00,VWS V14.01,2013-03-12 12:09:00,
2013-03-12 07:14:00,40.0,30.3,30.15,North,355,0.0,0.0,68,0.00,,SKC,0.00,VWS V14.01,2013-03-12 12:14:00,
2013-03-12 07:19:00,40.1,30.4,30.15,North,355,0.0,0.0,68,0.00,,SKC,0.00,VWS V14.01,2013-03-12 12:19:00,
2013-03-12 07:24:00,40.1,30.4,30.15,North,355,0.0,0.0,68,0.00,,SKC,0.00,VWS V14.01,2013-03-12 12:24:00,
2013-03-12 07:29:00,40.2,30.5,30.16,North,355,0.0,0.0,68,0.00,,SKC,0.00,VWS V14.01,2013-03-12 12:29:00,
2013-03-12 07:34:00,40.1,30.4,30.16,North,355,0.0,0.0,68,0.00,,SKC,0.00,VWS V14.01,2013-03-12 12:34:00,
2013-03-12 07:39:00,40.1,30.4,30.16,North,355,0.0,0.0,68,0.00,,SKC,0.00,VWS V14.01,2013-03-12 12:39:00,
2013-03-12 07:44:00,40.1,30.4,30.16,North,355,0.0,0.0,68,0.00,,SKC,0.00,VWS V14.01,2013-03-12 12:44:00,
2013-03-12 07:49:00,40.2,30.5,30.17,North,355,0.0,0.0,68,0.00,,SKC,0.00,VWS V14.01,2013-03-12 12:49:00,
2013-03-12 07:54:00,40.2,30.5,30.17,North,355,0.0,0.0,68,0.00,,SKC,0.00,VWS V14.01,2013-03-12 12:54:00,
2013-03-12 07:59:00,40.2,30.5,30.17,North,355,0.0,0.0,68,0.00,,SKC,0.00,VWS V14.01,2013-03-12 12:59:00,
2013-03-12 08:04:00,40.2,30.5,30.17,North,355,0.0,0.0,68,0.00,,SKC,0.00,VWS V14.01,2013-03-12 13:04:00,
2013-03-12 08:09:00,40.2,30.9,30.17,North,355,0.0,0.0,69,0.00,,SKC,0.00,VWS V14.01,2013-03-12 13:09:00,
2013-03-12 08:14:00,40.2,31.2,30.17,North,355,0.0,0.0,70,0.00,,SKC,0.00,VWS V14.01,2013-03-12 13:14:00,
2013-03-12 08:19:00,40.3,31.3,30.17,North,355,0.0,0.0,70,0.00,,SKC,0.00,VWS V14.01,2013-03-12 13:19:00,
2013-03-12 08:24:00,40.4,31.4,30.17,North,355,0.0,0.0,70,0.00,,SKC,0.00,VWS V14.01,2013-03-12 13:24:00,
2013-03-12 08:29:00,40.5,31.5,30.17,North,355,0.0,0.0,70,0.00,,SKC,0.00,VWS V14.01,2013-03-12 13:29:00,
2013-03-12 08:34:00,41.0,32.3,30.18,North,355,0.0,0.0,71,0.00,,SKC,0.00,VWS V14.01,2013-03-12 13:34:00,
2013-03-12 08:39:00,41.5,32.5,30.18,North,355,0.0,0.0,70,0.00,,SKC,0.00,VWS V14.01,2013-03-12 13:39:00,
2013-03-12 08:44:00,42.2,32.8,30.18,North,355,0.0,0.0,69,0.00,,SKC,0.00,VWS V14.01,2013-03-12 13:44:00,
2013-03-12 08:49:00,42.7,32.9,30.19,North,355,0.0,0.0,68,0.00,,SKC,0.00,VWS V14.01,2013-03-12 13:49:00,
2013-03-12 08:54:00,43.4,32.8,30.19,North,355,0.0,0.0,66,0.00,,SKC,0.00,VWS V14.01,2013-03-12 13:54:00,
2013-03-12 08:59:00,44.4,32.6,30.19,North,355,0.0,0.0,63,0.00,,SKC,0.00,VWS V14.01,2013-03-12 13:59:00,
2013-03-12 09:04:00,45.4,32.8,30.19,North,355,0.0,1.0,61,0.00,,SKC,0.00,VWS V14.01,2013-03-12 14:04:00,
2013-03-12 09:09:00,46.5,33.0,30.19,North,355,0.0,1.0,59,0.00,,SKC,0.00,VWS V14.01,2013-03-12 14:09:00,
2013-03-12 09:14:00,47.8,33.8,30.19,North,355,0.0,1.0,58,0.00,,SKC,0.00,VWS V14.01,2013-03-12 14:14:00,
2013-03-12 09:19:00,48.9,34.3,30.20,North,355,0.0,1.0,57,0.00,,SKC,0.00,VWS V14.01,2013-03-12 14:19:00,
2013-03-12 09:24:00,50.0,34.9,30.20,North,355,0.0,3.0,56,0.00,,SKC,0.00,VWS V14.01,2013-03-12 14:24:00,
2013-03-12 09:29:00,51.0,35.0,30.20,North,355,4.0,4.0,54,0.00,,SKC,0.00,VWS V14.01,2013-03-12 14:29:00,
2013-03-12 09:34:00,51.9,35.8,30.20,North,355,0.0,3.0,54,0.00,,SKC,0.00,VWS V14.01,2013-03-12 14:34:00,
2013-03-12 09:39:00,52.7,35.6,30.20,NNW,336,2.0,5.0,52,0.00,,SKC,0.00,VWS V14.01,2013-03-12 14:39:00,
2013-03-12 09:44:00,53.3,36.1,30.20,NW,312,6.0,6.0,52,0.00,,SKC,0.00,VWS V14.01,2013-03-12 14:44:00,
2013-03-12 09:49:00,53.8,36.1,30.20,West,268,4.0,7.0,51,0.00,,SKC,0.00,VWS V14.01,2013-03-12 14:49:00,
2013-03-12 09:54:00,54.2,36.0,30.21,SW,215,2.0,8.0,50,0.00,,SKC,0.00,VWS V14.01,2013-03-12 14:54:00,
2013-03-12 09:59:00,54.7,36.4,30.21,SSW,208,2.0,8.0,50,0.00,,SKC,0.00,VWS V14.01,2013-03-12 14:59:00,
2013-03-12 10:04:00,55.3,36.5,30.21,SSW,202,0.0,6.0,49,0.00,,SKC,0.00,VWS V14.01,2013-03-12 15:04:00,
2013-03-12 10:09:00,55.8,36.9,30.21,SSW,200,5.0,6.0,49,0.00,,SKC,0.00,VWS V14.01,2013-03-12 15:09:00,
2013-03-12 10:14:00,56.1,37.2,30.21,SSW,199,7.0,9.0,49,0.00,,SKC,0.00,VWS V14.01,2013-03-12 15:14:00,
2013-03-12 10:19:00,56.5,37.6,30.21,SSW,197,0.0,9.0,49,0.00,,SKC,0.00,VWS V14.01,2013-03-12 15:19:00,
2013-03-12 10:24:00,57.0,37.0,30.21,SSW,202,3.0,9.0,47,0.00,,SKC,0.00,VWS V14.01,2013-03-12 15:24:00,
2013-03-12 10:29:00,57.4,37.3,30.21,SSW,202,4.0,9.0,47,0.00,,SKC,0.00,VWS V14.01,2013-03-12 15:29:00,
2013-03-12 10:34:00,57.8,37.7,30.21,SSW,196,5.0,6.0,47,0.00,,SKC,0.00,VWS V14.01,2013-03-12 15:34:00,
2013-03-12 10:39:00,58.3,37.6,30.22,SSW,196,1.0,9.0,46,0.00,,SKC,0.00,VWS V14.01,2013-03-12 15:39:00,
2013-03-12 10:44:00,58.9,38.2,30.22,SSW,192,4.0,9.0,46,0.00,,SKC,0.00,VWS V14.01,2013-03-12 15:44:00,
2013-03-12 10:49:00,59.7,38.3,30.22,SSW,197,7.0,9.0,45,0.00,,SKC,0.00,VWS V14.01,2013-03-12 15:49:00,
2013-03-12 10:54:00,60.5,38.5,30.22,South,184,3.0,11.0,44,0.00,,SKC,0.00,VWS V14.01,2013-03-12 15:54:00,
2013-03-12 10:59:00,61.2,37.3,30.22,South,191,2.0,12.0,41,0.00,,SKC,0.00,VWS V14.01,2013-03-12 15:59:00,
2013-03-12 11:04:00,61.8,37.2,30.22,SSW,205,3.0,13.0,40,0.00,,SKC,0.00,VWS V14.01,2013-03-12 16:04:00,
2013-03-12 11:09:00,62.2,37.0,30.22,SSW,205,10.0,14.0,39,0.00,,SKC,0.00,VWS V14.01,2013-03-12 16:09:00,
2013-03-12 11:14:00,62.4,36.5,30.22,SW,225,6.0,16.0,38,0.00,,SKC,0.00,VWS V14.01,2013-03-12 16:14:00,
2013-03-12 11:19:00,62.6,36.7,30.22,SSW,205,11.0,16.0,38,0.00,,SKC,0.00,VWS V14.01,2013-03-12 16:19:00,
2013-03-12 11:24:00,63.0,37.0,30.22,South,169,5.0,16.0,38,0.00,,SKC,0.00,VWS V14.01,2013-03-12 16:24:00,
2013-03-12 11:29:00,63.7,37.6,30.22,South,181,6.0,16.0,38,0.00,,SKC,0.00,VWS V14.01,2013-03-12 16:29:00,
2013-03-12 11:34:00,64.0,36.5,30.22,South,186,9.0,12.0,36,0.00,,SKC,0.00,VWS V14.01,2013-03-12 16:34:00,
2013-03-12 11:39:00,64.1,36.6,30.22,SSE,165,5.0,12.0,36,0.00,,SKC,0.00,VWS V14.01,2013-03-12 16:39:00,
2013-03-12 11:44:00,64.4,36.9,30.22,South,170,4.0,13.0,36,0.00,,SKC,0.00,VWS V14.01,2013-03-12 16:44:00,
2013-03-12 11:49:00,64.7,37.2,30.22,South,169,3.0,13.0,36,0.00,,SKC,0.00,VWS V14.01,2013-03-12 16:49:00,
2013-03-12 11:54:00,65.0,37.4,30.22,SSE,162,3.0,13.0,36,0.00,,SKC,0.00,VWS V14.01,2013-03-12 16:54:00,
2013-03-12 11:59:00,65.5,37.2,30.22,SE,146,6.0,13.0,35,0.00,,SKC,0.00,VWS V14.01,2013-03-12 16:59:00,
2013-03-12 12:04:00,65.8,37.4,30.21,South,174,4.0,6.0,35,0.00,,SKC,0.00,VWS V14.01,2013-03-12 17:04:00,
2013-03-12 12:09:00,66.0,36.8,30.21,SSW,192,5.0,13.0,34,0.00,,SKC,0.00,VWS V14.01,2013-03-12 17:09:00,
2013-03-12 12:14:00,66.2,37.0,30.21,SW,234,10.0,15.0,34,0.00,,SKC,0.00,VWS V14.01,2013-03-12 17:14:00,
2013-03-12 12:19:00,66.3,37.1,30.21,South,188,3.0,15.0,34,0.00,,SKC,0.00,VWS V14.01,2013-03-12 17:19:00,
2013-03-12 12:24:00,66.6,38.1,30.21,South,184,10.0,15.0,35,0.00,,SKC,0.00,VWS V14.01,2013-03-12 17:24:00,
2013-03-12 12:29:00,67.0,37.7,30.20,South,176,5.0,15.0,34,0.00,,SKC,0.00,VWS V14.01,2013-03-12 17:29:00,
2013-03-12 12:30:00,67.1,37.1,30.20,SSW,213,6.0,15.0,33,0.00,,SKC,0.00,VWS V14.01,2013-03-12 17:30:00,
2013-03-12 12:34:00,67.2,36.4,30.20,SSW,211,7.0,14.0,32,0.00,,SKC,0.00,VWS V14.01,2013-03-12 17:34:00,
2013-03-12 12:39:00,67.4,37.3,30.20,South,191,5.0,14.0,33,0.00,,SKC,0.00,VWS V14.01,2013-03-12 17:39:00,
2013-03-12 12:44:00,67.8,37.7,30.20,SSW,195,5.0,14.0,33,0.00,,SKC,0.00,VWS V14.01,2013-03-12 17:44:00,
2013-03-12 12:49:00,68.0,37.1,30.20,SW,218,9.0,14.0,32,0.00,,SKC,0.00,VWS V14.01,2013-03-12 17:49:00,
2013-03-12 12:54:00,68.3,36.5,30.19,South,191,3.0,14.0,31,0.00,,SKC,0.00,VWS V14.01,2013-03-12 17:54:00,
2013-03-12 12:59:00,68.7,36.9,30.19,SSE,157,10.0,14.0,31,0.00,,SKC,0.00,VWS V14.01,2013-03-12 17:59:00,
2013-03-12 13:00:00,68.8,37.0,30.19,SW,215,5.0,14.0,31,0.00,,SKC,0.00,VWS V14.01,2013-03-12 18:00:00,
2013-03-12 13:04:00,69.0,36.3,30.19,South,188,5.0,10.0,30,0.00,,SKC,0.00,VWS V14.01,2013-03-12 18:04:00,
2013-03-12 13:09:00,69.2,36.5,30.19,SSW,198,4.0,12.0,30,0.00,,SKC,0.00,VWS V14.01,2013-03-12 18:09:00,
2013-03-12 13:14:00,69.6,36.0,30.19,SW,215,5.0,15.0,29,0.00,,SKC,0.00,VWS V14.01,2013-03-12 18:14:00,
2013-03-12 13:19:00,70.1,36.4,30.19,SSW,210,4.0,15.0,29,0.00,,SKC,0.00,VWS V14.01,2013-03-12 18:19:00,
2013-03-12 13:24:00,70.8,37.0,30.19,SW,221,10.0,15.0,29,0.00,,SKC,0.00,VWS V14.01,2013-03-12 18:24:00,
2013-03-12 13:29:00,71.2,35.5,30.19,SSE,153,5.0,15.0,27,0.00,,SKC,0.00,VWS V14.01,2013-03-12 18:29:00,
2013-03-12 13:30:00,71.3,35.6,30.18,SSW,207,4.0,15.0,27,0.00,,SKC,0.00,VWS V14.01,2013-03-12 18:30:00,
2013-03-12 13:34:00,71.2,35.5,30.18,SW,214,5.0,14.0,27,0.00,,SKC,0.00,VWS V14.01,2013-03-12 18:34:00,
2013-03-12 13:39:00,71.2,35.5,30.18,SW,217,9.0,14.0,27,0.00,,SKC,0.00,VWS V14.01,2013-03-12 18:39:00,
2013-03-12 13:44:00,71.4,35.7,30.18,SSW,201,12.0,16.0,27,0.00,,SKC,0.00,VWS V14.01,2013-03-12 18:44:00,
2013-03-12 13:49:00,71.7,35.0,30.18,SW,217,2.0,16.0,26,0.00,,SKC,0.00,VWS V14.01,2013-03-12 18:49:00,
2013-03-12 13:54:00,72.0,37.1,30.17,SSW,199,5.0,16.0,28,0.00,,SKC,0.00,VWS V14.01,2013-03-12 18:54:00,
2013-03-12 13:59:00,72.5,36.7,30.17,SSE,148,4.0,16.0,27,0.00,,SKC,0.00,VWS V14.01,2013-03-12 18:59:00,
2013-03-12 14:00:00,72.9,37.0,30.17,SSE,150,4.0,16.0,27,0.00,,SKC,0.00,VWS V14.01,2013-03-12 19:00:00,
2013-03-12 14:04:00,73.1,36.2,30.17,WSW,243,4.0,14.0,26,0.00,,SKC,0.00,VWS V14.01,2013-03-12 19:04:00,
2013-03-12 14:09:00,73.4,35.5,30.17,SW,222,7.0,14.0,25,0.00,,SKC,0.00,VWS V14.01,2013-03-12 19:09:00,
2013-03-12 14:14:00,73.4,36.5,30.16,SW,232,13.0,17.0,26,0.00,,SKC,0.00,VWS V14.01,2013-03-12 19:14:00,
2013-03-12 14:19:00,73.4,36.5,30.16,SSW,204,2.0,17.0,26,0.00,,SKC,0.00,VWS V14.01,2013-03-12 19:19:00,
2013-03-12 14:24:00,73.5,36.5,30.15,South,190,6.0,17.0,26,0.00,,SKC,0.00,VWS V14.01,2013-03-12 19:24:00,
2013-03-12 14:29:00,73.8,36.8,30.15,SSW,197,1.0,17.0,26,0.00,,SKC,0.00,VWS V14.01,2013-03-12 19:29:00,
2013-03-12 14:30:00,74.0,37.0,30.15,SSE,161,7.0,17.0,26,0.00,,SKC,0.00,VWS V14.01,2013-03-12 19:30:00,
2013-03-12 14:34:00,74.1,36.1,30.15,South,190,7.0,15.0,25,0.00,,SKC,0.00,VWS V14.01,2013-03-12 19:34:00,
2013-03-12 14:39:00,74.2,36.2,30.15,South,185,8.0,15.0,25,0.00,,SKC,0.00,VWS V14.01,2013-03-12 19:39:00,
2013-03-12 14:44:00,74.4,36.3,30.14,SSW,205,9.0,15.0,25,0.00,,SKC,0.00,VWS V14.01,2013-03-12 19:44:00,
2013-03-12 14:49:00,74.6,36.5,30.14,SSW,194,4.0,16.0,25,0.00,,SKC,0.00,VWS V14.01,2013-03-12 19:49:00,
2013-03-12 14:54:00,74.8,35.6,30.14,SW,236,10.0,16.0,24,0.00,,SKC,0.00,VWS V14.01,2013-03-12 19:54:00,
2013-03-12 14:59:00,74.9,35.7,30.14,SW,229,3.0,16.0,24,0.00,,SKC,0.00,VWS V14.01,2013-03-12 19:59:00,
2013-03-12 15:00:00,75.0,36.8,30.14,SW,225,10.0,16.0,25,0.00,,SKC,0.00,VWS V14.01,2013-03-12 20:00:00,
2013-03-12 15:04:00,75.3,36.0,30.14,WSW,252,12.0,12.0,24,0.00,,SKC,0.00,VWS V14.01,2013-03-12 20:04:00,
2013-03-12 15:09:00,75.7,35.3,30.13,SW,234,4.0,13.0,23,0.00,,SKC,0.00,VWS V14.01,2013-03-12 20:09:00,
2013-03-12 15:14:00,75.9,35.5,30.14,SW,221,8.0,15.0,23,0.00,,SKC,0.00,VWS V14.01,2013-03-12 20:14:00,
2013-03-12 15:19:00,76.0,36.6,30.13,SW,225,9.0,15.0,24,0.00,,SKC,0.00,VWS V14.01,2013-03-12 20:19:00,
2013-03-12 15:24:00,76.0,36.6,30.13,South,175,9.0,15.0,24,0.00,,SKC,0.00,VWS V14.01,2013-03-12 20:24:00,
2013-03-12 15:29:00,76.3,35.8,30.13,SW,225,10.0,15.0,23,0.00,,SKC,0.00,VWS V14.01,2013-03-12 20:29:00,
2013-03-12 15:30:00,76.4,34.8,30.13,South,186,10.0,15.0,22,0.00,,SKC,0.00,VWS V14.01,2013-03-12 20:30:00,
2013-03-12 15:34:00,76.4,34.8,30.12,South,191,6.0,10.0,22,0.00,,SKC,0.00,VWS V14.01,2013-03-12 20:34:00,
2013-03-12 15:39:00,76.4,34.8,30.12,South,186,5.0,15.0,22,0.00,,SKC,0.00,VWS V14.01,2013-03-12 20:39:00,
2013-03-12 15:44:00,76.5,33.7,30.12,SW,215,5.0,15.0,21,0.00,,SKC,0.00,VWS V14.01,2013-03-12 20:44:00,
2013-03-12 15:49:00,76.7,35.0,30.12,WSW,238,8.0,15.0,22,0.00,,SKC,0.00,VWS V14.01,2013-03-12 20:49:00,
2013-03-12 15:54:00,76.8,34.0,30.12,SW,229,4.0,15.0,21,0.00,,SKC,0.00,VWS V14.01,2013-03-12 20:54:00,
2013-03-12 15:59:00,77.1,35.4,30.12,SW,214,3.0,15.0,22,0.00,,SKC,0.00,VWS V14.01,2013-03-12 20:59:00,
2013-03-12 16:00:00,77.3,35.5,30.12,South,191,7.0,15.0,22,0.00,,SKC,0.00,VWS V14.01,2013-03-12 21:00:00,
2013-03-12 16:04:00,77.3,34.4,30.11,SSW,194,5.0,9.0,21,0.00,,SKC,0.00,VWS V14.01,2013-03-12 21:04:00,
2013-03-12 16:09:00,77.4,35.6,30.11,South,187,5.0,12.0,22,0.00,,SKC,0.00,VWS V14.01,2013-03-12 21:09:00,
2013-03-12 16:14:00,77.5,35.7,30.11,South,188,5.0,12.0,22,0.00,,SKC,0.00,VWS V14.01,2013-03-12 21:14:00,
2013-03-12 16:19:00,77.8,34.8,30.12,SW,227,4.0,12.0,21,0.00,,SKC,0.00,VWS V14.01,2013-03-12 21:19:00,
2013-03-12 16:24:00,77.9,33.6,30.11,SW,230,4.0,12.0,20,0.00,,SKC,0.00,VWS V14.01,2013-03-12 21:24:00,
2013-03-12 16:29:00,77.9,34.9,30.11,South,181,5.0,12.0,21,0.00,,SKC,0.00,VWS V14.01,2013-03-12 21:29:00,
2013-03-12 16:30:00,77.9,34.9,30.11,SE,136,6.0,12.0,21,0.00,,SKC,0.00,VWS V14.01,2013-03-12 21:30:00,
2013-03-12 16:34:00,77.9,34.9,30.11,South,187,10.0,11.0,21,0.00,,SKC,0.00,VWS V14.01,2013-03-12 21:34:00,
2013-03-12 16:39:00,77.9,33.6,30.11,SSW,198,10.0,11.0,20,0.00,,SKC,0.00,VWS V14.01,2013-03-12 21:39:00,
2013-03-12 16:44:00,78.0,32.4,30.11,SW,230,5.0,12.0,19,0.00,,SKC,0.00,VWS V14.01,2013-03-12 21:44:00,
2013-03-12 16:49:00,78.2,33.9,30.11,SSW,196,6.0,12.0,20,0.00,,SKC,0.00,VWS V14.01,2013-03-12 21:49:00,
2013-03-12 16:54:00,78.3,34.0,30.10,SW,216,2.0,13.0,20,0.00,,SKC,0.00,VWS V14.01,2013-03-12 21:54:00,
2013-03-12 16:59:00,78.4,35.3,30.10,South,177,7.0,13.0,21,0.00,,SKC,0.00,VWS V14.01,2013-03-12 21:59:00,
2013-03-12 17:00:00,78.4,34.0,30.10,South,175,6.0,13.0,20,0.00,,SKC,0.00,VWS V14.01,2013-03-12 22:00:00,
2013-03-12 17:04:00,78.3,34.0,30.11,SSW,194,5.0,10.0,20,0.00,,SKC,0.00,VWS V14.01,2013-03-12 22:04:00,
2013-03-12 17:09:00,78.3,34.0,30.10,SSE,147,1.0,10.0,20,0.00,,SKC,0.00,VWS V14.01,2013-03-12 22:09:00,
2013-03-12 17:15:00,78.3,32.7,30.10,SSW,207,2.0,13.0,19,0.00,,SKC,0.00,VWS V14.01,2013-03-12 22:15:00,
2013-03-12 17:20:00,78.3,32.7,30.10,SSW,195,4.0,13.0,19,0.00,,SKC,0.00,VWS V14.01,2013-03-12 22:20:00,
2013-03-12 17:25:00,78.2,33.9,30.11,SSW,195,6.0,13.0,20,0.00,,SKC,0.00,VWS V14.01,2013-03-12 22:25:00,
2013-03-12 17:30:00,78.2,32.6,30.11,SSW,209,5.0,13.0,19,0.00,,SKC,0.00,VWS V14.01,2013-03-12 22:30:00,
2013-03-12 17:35:00,78.3,34.0,30.10,SSW,209,3.0,6.0,20,0.00,,SKC,0.00,VWS V14.01,2013-03-12 22:35:00,
2013-03-12 17:40:00,78.5,32.8,30.10,SSW,196,4.0,7.0,19,0.00,,SKC,0.00,VWS V14.01,2013-03-12 22:40:00,
2013-03-12 17:45:00,78.7,33.0,30.10,SSW,198,5.0,12.0,19,0.00,,SKC,0.00,VWS V14.01,2013-03-12 22:45:00,
2013-03-12 17:50:00,78.7,34.3,30.11,SW,224,8.0,12.0,20,0.00,,SKC,0.00,VWS V14.01,2013-03-12 22:50:00,
2013-03-12 17:55:00,78.8,33.1,30.11,SW,229,6.0,12.0,19,0.00,,SKC,0.00,VWS V14.01,2013-03-12 22:55:00,
2013-03-12 18:00:00,78.8,33.1,30.11,SW,232,2.0,12.0,19,0.00,,SKC,0.00,VWS V14.01,2013-03-12 23:00:00,
2013-03-12 18:05:00,78.7,34.3,30.11,South,174,2.0,7.0,20,0.00,,SKC,0.00,VWS V14.01,2013-03-12 23:05:00,
2013-03-12 18:10:00,78.5,34.1,30.11,South,171,4.0,7.0,20,0.00,,SKC,0.00,VWS V14.01,2013-03-12 23:10:00,
2013-03-12 18:15:00,78.3,32.7,30.11,South,175,5.0,7.0,19,0.00,,SKC,0.00,VWS V14.01,2013-03-12 23:15:00,
2013-03-12 18:20:00,78.3,32.7,30.11,South,179,0.0,7.0,19,0.00,,SKC,0.00,VWS V14.01,2013-03-12 23:20:00,
2013-03-12 18:25:00,78.4,32.8,30.11,South,179,4.0,7.0,19,0.00,,SKC,0.00,VWS V14.01,2013-03-12 23:25:00,
2013-03-12 18:30:00,78.4,34.0,30.11,South,179,1.0,7.0,20,0.00,,SKC,0.00,VWS V14.01,2013-03-12 23:30:00,
2013-03-12 18:35:00,78.2,32.6,30.12,South,179,3.0,5.0,19,0.00,,SKC,0.00,VWS V14.01,2013-03-12 23:35:00,
2013-03-12 18:40:00,78.0,33.7,30.12,South,171,2.0,6.0,20,0.00,,SKC,0.00,VWS V14.01,2013-03-12 23:40:00,
2013-03-12 18:45:00,77.7,32.2,30.12,South,172,4.0,6.0,19,0.00,,SKC,0.00,VWS V14.01,2013-03-12 23:45:00,
2013-03-12 18:50:00,77.5,33.3,30.12,South,170,4.0,6.0,20,0.00,,SKC,0.00,VWS V14.01,2013-03-12 23:50:00,
2013-03-12 18:55:00,77.3,33.1,30.12,South,170,3.0,6.0,20,0.00,,SKC,0.00,VWS V14.01,2013-03-12 23:55:00,
2013-03-12 19:00:00,77.2,33.1,30.12,South,170,0.0,6.0,20,0.00,,SKC,0.00,VWS V14.01,2013-03-13 00:00:00,
2013-03-12 19:05:00,77.1,33.0,30.12,South,173,1.0,5.0,20,0.00,,SKC,0.00,VWS V14.01,2013-03-13 00:05:00,
2013-03-12 19:10:00,77.0,32.9,30.13,South,173,0.0,5.0,20,0.00,,SKC,0.00,VWS V14.01,2013-03-13 00:10:00,
2013-03-12 19:15:00,76.9,32.8,30.13,South,173,0.0,5.0,20,0.00,,SKC,0.00,VWS V14.01,2013-03-13 00:15:00,
2013-03-12 19:20:00,76.7,33.9,30.13,South,173,0.0,5.0,21,0.00,,SKC,0.00,VWS V14.01,2013-03-13 00:20:00,
2013-03-12 19:25:00,76.4,33.6,30.13,South,173,0.0,5.0,21,0.00,,SKC,0.00,VWS V14.01,2013-03-13 00:25:00,
2013-03-12 19:30:00,76.1,33.4,30.14,South,173,0.0,5.0,21,0.00,,SKC,0.00,VWS V14.01,2013-03-13 00:30:00,
2013-03-12 19:35:00,75.8,33.1,30.14,South,173,0.0,0.0,21,0.00,,SKC,0.00,VWS V14.01,2013-03-13 00:35:00,
2013-03-12 19:40:00,75.5,34.0,30.14,South,173,0.0,0.0,22,0.00,,SKC,0.00,VWS V14.01,2013-03-13 00:40:00,
2013-03-12 19:45:00,75.0,33.6,30.14,South,173,0.0,1.0,22,0.00,,SKC,0.00,VWS V14.01,2013-03-13 00:45:00,
2013-03-12 19:50:00,74.5,34.3,30.14,South,173,0.0,1.0,23,0.00,,SKC,0.00,VWS V14.01,2013-03-13 00:50:00,
2013-03-12 19:55:00,74.1,34.0,30.15,South,173,0.0,1.0,23,0.00,,SKC,0.00,VWS V14.01,2013-03-13 00:55:00,
2013-03-12 20:00:00,73.7,34.7,30.15,South,173,0.0,1.0,24,0.00,,SKC,0.00,VWS V14.01,2013-03-13 01:00:00,
2013-03-12 20:05:00,73.1,35.2,30.15,South,173,0.0,0.0,25,0.00,,SKC,0.00,VWS V14.01,2013-03-13 01:05:00,
2013-03-12 20:10:00,72.6,35.8,30.15,South,173,0.0,0.0,26,0.00,,SKC,0.00,VWS V14.01,2013-03-13 01:10:00,
2013-03-12 20:15:00,72.1,35.4,30.16,South,173,0.0,0.0,26,0.00,,SKC,0.00,VWS V14.01,2013-03-13 01:15:00,
2013-03-12 20:20:00,71.5,34.8,30.16,South,173,0.0,0.0,26,0.00,,SKC,0.00,VWS V14.01,2013-03-13 01:20:00,
2013-03-12 20:25:00,70.9,34.3,30.16,South,173,0.0,0.0,26,0.00,,SKC,0.00,VWS V14.01,2013-03-13 01:25:00,
2013-03-12 20:30:00,70.4,33.9,30.16,South,173,0.0,0.0,26,0.00,,SKC,0.00,VWS V14.01,2013-03-13 01:30:00,
2013-03-12 20:35:00,69.9,35.3,30.16,South,173,0.0,0.0,28,0.00,,SKC,0.00,VWS V14.01,2013-03-13 01:35:00,
2013-03-12 20:40:00,69.5,35.0,30.16,South,173,0.0,0.0,28,0.00,,SKC,0.00,VWS V14.01,2013-03-13 01:40:00,
2013-03-12 20:45:00,69.1,34.7,30.16,South,173,0.0,0.0,28,0.00,,SKC,0.00,VWS V14.01,2013-03-13 01:45:00,
2013-03-12 20:50:00,68.6,35.1,30.17,South,173,0.0,0.0,29,0.00,,SKC,0.00,VWS V14.01,2013-03-13 01:50:00,
2013-03-12 20:55:00,68.1,35.5,30.17,South,173,0.0,0.0,30,0.00,,SKC,0.00,VWS V14.01,2013-03-13 01:55:00,
2013-03-12 21:00:00,67.6,35.1,30.17,South,173,0.0,0.0,30,0.00,,SKC,0.00,VWS V14.01,2013-03-13 02:00:00,
2013-03-12 21:05:00,67.1,34.7,30.17,South,173,0.0,0.0,30,0.00,,SKC,0.00,VWS V14.01,2013-03-13 02:05:00,
2013-03-12 21:10:00,66.6,35.0,30.17,South,173,0.0,0.0,31,0.00,,SKC,0.00,VWS V14.01,2013-03-13 02:10:00,
2013-03-12 21:15:00,66.2,34.7,30.17,South,173,0.0,0.0,31,0.00,,SKC,0.00,VWS V14.01,2013-03-13 02:15:00,
2013-03-12 21:20:00,65.6,35.0,30.17,South,173,0.0,0.0,32,0.00,,SKC,0.00,VWS V14.01,2013-03-13 02:20:00,
2013-03-12 21:25:00,65.2,34.6,30.17,South,173,0.0,0.0,32,0.00,,SKC,0.00,VWS V14.01,2013-03-13 02:25:00,
2013-03-12 21:30:00,64.8,34.3,30.17,South,173,0.0,0.0,32,0.00,,SKC,0.00,VWS V14.01,2013-03-13 02:30:00,
2013-03-12 21:35:00,64.5,34.8,30.18,South,173,0.0,0.0,33,0.00,,SKC,0.00,VWS V14.01,2013-03-13 02:35:00,
2013-03-12 21:40:00,64.3,33.8,30.18,South,173,0.0,2.0,32,0.00,,SKC,0.00,VWS V14.01,2013-03-13 02:40:00,
2013-03-12 21:45:00,64.4,33.9,30.18,South,173,0.0,2.0,32,0.00,,SKC,0.00,VWS V14.01,2013-03-13 02:45:00,
2013-03-12 21:50:00,64.4,33.1,30.18,South,173,0.0,2.0,31,0.00,,SKC,0.00,VWS V14.01,2013-03-13 02:50:00,
2013-03-12 21:55:00,64.5,34.0,30.18,South,173,0.0,2.0,32,0.00,,SKC,0.00,VWS V14.01,2013-03-13 02:55:00,
2013-03-12 22:00:00,64.6,33.3,30.18,South,173,1.0,4.0,31,0.00,,SKC,0.00,VWS V14.01,2013-03-13 03:00:00,
2013-03-12 22:05:00,64.7,33.4,30.18,South,171,3.0,5.0,31,0.00,,SKC,0.00,VWS V14.01,2013-03-13 03:05:00,
2013-03-12 22:10:00,64.9,32.8,30.18,SSE,165,1.0,7.0,30,0.00,,SKC,0.00,VWS V14.01,2013-03-13 03:10:00,
2013-03-12 22:15:00,65.2,32.2,30.19,SSE,160,3.0,7.0,29,0.00,,SKC,0.00,VWS V14.01,2013-03-13 03:15:00,
2013-03-12 22:20:00,65.8,35.2,30.20,SSE,165,6.0,16.0,32,0.00,,SKC,0.00,VWS V14.01,2013-03-13 03:20:00,
2013-03-12 22:25:00,66.3,37.8,30.20,SE,138,7.0,16.0,35,0.00,,SKC,0.00,VWS V14.01,2013-03-13 03:25:00,
2013-03-12 22:30:00,66.4,39.4,30.20,SSE,148,5.0,16.0,37,0.00,,SKC,0.00,VWS V14.01,2013-03-13 03:30:00,
2013-03-12 22:35:00,66.3,40.6,30.20,SSE,148,5.0,12.0,39,0.00,,SKC,0.00,VWS V14.01,2013-03-13 03:35:00,
2013-03-12 22:40:00,66.1,41.1,30.21,SE,146,8.0,12.0,40,0.00,,SKC,0.00,VWS V14.01,2013-03-13 03:40:00,
2013-03-12 22:45:00,65.8,41.5,30.21,SSE,148,6.0,12.0,41,0.00,,SKC,0.00,VWS V14.01,2013-03-13 03:45:00,
2013-03-12 22:50:00,65.4,41.7,30.21,SE,136,6.0,13.0,42,0.00,,SKC,0.00,VWS V14.01,2013-03-13 03:50:00,
2013-03-12 22:55:00,65.1,42.1,30.22,SE,140,5.0,14.0,43,0.00,,SKC,0.00,VWS V14.01,2013-03-13 03:55:00,
2013-03-12 23:00:00,64.8,42.4,30.22,SSE,147,9.0,14.0,44,0.00,,SKC,0.00,VWS V14.01,2013-03-13 04:00:00,
2013-03-12 23:05:00,64.4,42.6,30.23,SSE,164,3.0,14.0,45,0.00,,SKC,0.00,VWS V14.01,2013-03-13 04:05:00,
2013-03-12 23:10:00,64.1,42.9,30.23,SE,144,3.0,14.0,46,0.00,,SKC,0.00,VWS V14.01,2013-03-13 04:10:00,
2013-03-12 23:15:00,63.8,43.2,30.23,South,171,1.0,14.0,47,0.00,,SKC,0.00,VWS V14.01,2013-03-13 04:15:00,
2013-03-12 23:20:00,63.4,43.4,30.23,South,190,4.0,14.0,48,0.00,,SKC,0.00,VWS V14.01,2013-03-13 04:20:00,
2013-03-12 23:25:00,63.0,43.6,30.23,SSE,150,7.0,14.0,49,0.00,,SKC,0.00,VWS V14.01,2013-03-13 04:25:00,
2013-03-12 23:30:00,62.7,43.8,30.24,SSE,148,4.0,14.0,50,0.00,,SKC,0.00,VWS V14.01,2013-03-13 04:30:00,
2013-03-12 23:35:00,62.3,43.4,30.24,SE,145,9.0,13.0,50,0.00,,SKC,0.00,VWS V14.01,2013-03-13 04:35:00,
2013-03-12 23:40:00,62.0,43.2,30.24,SSE,153,1.0,13.0,50,0.00,,SKC,0.00,VWS V14.01,2013-03-13 04:40:00,
2013-03-12 23:45:00,61.8,43.5,30.24,South,185,5.0,13.0,51,0.00,,SKC,0.00,VWS V14.01,2013-03-13 04:45:00,
2013-03-12 23:50:00,61.5,43.2,30.24,South,183,5.0,13.0,51,0.00,,SKC,0.00,VWS V14.01,2013-03-13 04:50:00,
2013-03-12 23:55:00,61.2,43.5,30.25,SSE,163,2.0,13.0,52,0.00,,SKC,0.00,VWS V14.01,2013-03-13 04:55:00,